GFSNIL_sfc_thetae_000.txt.gz
Theta_e
296 297 296 296 295 295 295 296 298 298 298 298 298 298 297 297 298 299 299 299 299 299
294 294 295 296 296 296 296 299 298 298 297 298 298 298 297 297 297 299 300 299 299 300
294 294 295 295 295 295 296 297 297 297 297 297 297 297 296 297 298 298 298 298 299 299
294 294 294 294 295 295 296 296 296 297 297 297 296 296 295 296 297 298 298 298 299 299
294 294 293 293 294 295 295 296 296 296 297 297 296 296 295 296 298 297 298 299 299 299
293 293 293 294 294 295 295 295 296 296 295 296 297 297 296 297 297 298 299 300 299 302
293 293 294 294 294 295 295 295 295 295 296 297 297 297 297 297 297 299 300 301 302 301
293 294 294 294 294 295 295 295 295 296 296 296 297 297 296 297 298 299 299 301 300 303
294 293 293 294 294 294 294 294 295 295 295 295 297 303 305 303 298 299 300 299 300 302
293 293 293 294 293 293 292 293 293 294 294 294 295 303 303 305 299 298 299 300 300 302
292 292 293 293 292 292 292 292 293 294 294 294 296 303 303 304 298 297 300 300 301 303
292 292 292 292 291 292 292 292 293 294 294 294 295 302 303 303 296 297 299 301 303 303
292 292 292 292 291 292 292 293 294 295 295 298 295 301 303 303 297 296 298 300 301 304
293 292 292 292 292 291 291 292 293 293 294 294 295 296 301 302 298 297 297 297 299 301

GFSNIL_sfc_thetae_003.txt.gz
Theta_e
294 294 294 294 293 293 293 294 295 296 296 297 296 296 296 295 295 295 295 296 297 299
293 292 294 294 294 293 294 297 296 296 296 296 296 296 296 295 294 295 296 298 298 298
292 292 293 293 293 293 294 294 295 296 296 296 296 296 295 295 295 295 297 298 298 298
292 293 292 292 292 293 294 294 295 295 295 295 295 295 294 293 294 295 296 297 298 299
293 293 291 291 292 293 293 294 294 295 295 295 295 294 294 294 295 295 295 297 297 299
292 291 291 291 292 293 293 293 294 295 294 294 295 295 295 295 295 295 296 297 297 299
290 291 291 292 292 293 293 293 293 293 294 295 295 296 296 296 295 295 297 298 299 300
291 292 292 292 292 292 293 293 293 293 294 294 295 296 296 296 296 296 296 298 300 301
292 292 291 291 292 292 292 291 292 292 293 293 296 302 304 303 298 298 298 296 298 301
291 291 291 292 291 291 290 290 291 291 292 292 294 302 304 304 300 297 297 296 298 299
290 290 291 290 290 290 290 290 290 291 291 292 294 303 304 304 299 298 296 297 298 300
290 290 290 290 289 290 290 290 290 291 291 291 293 301 303 300 297 296 296 297 300 300
290 290 290 290 289 289 290 290 291 291 291 295 293 298 301 299 295 294 295 299 299 302
291 290 290 290 289 289 289 289 289 290 291 291 292 293 300 301 297 295 297 296 296 298

GFSNIL_sfc_thetae_006.txt.gz
Theta_e
294 294 293 293 293 292 292 293 294 294 294 295 295 295 294 293 294 293 293 293 293 295
293 293 293 293 293 292 292 295 294 294 294 295 295 295 294 293 293 293 293 294 294 295
292 292 292 292 292 292 293 293 294 293 294 294 294 294 293 293 293 293 294 295 295 296
292 291 291 291 292 292 292 292 293 294 294 294 293 293 292 292 293 292 293 294 295 296
292 291 290 291 291 291 291 292 293 293 293 293 293 293 292 292 293 293 293 294 294 295
291 291 290 290 290 291 291 291 292 293 292 293 293 293 293 293 294 294 294 294 294 295
291 291 290 290 291 291 291 291 291 292 292 293 293 294 294 294 293 294 295 295 296 297
291 290 291 291 291 291 291 291 291 291 292 292 293 295 294 295 295 294 295 296 297 298
291 290 290 290 290 290 290 290 290 291 291 291 294 300 302 302 297 296 296 296 297 297
291 291 290 290 290 289 289 289 289 289 290 290 290 300 303 303 298 298 297 298 296 296
290 290 290 289 288 288 288 288 289 289 290 289 291 301 302 302 294 293 294 295 296 296
290 289 289 288 288 288 288 288 288 289 289 288 289 299 302 299 293 293 293 295 296 297
289 289 288 288 288 288 288 289 290 290 289 292 291 297 300 299 294 293 295 297 296 300
289 289 289 288 288 288 288 288 287 288 288 289 291 291 299 300 295 295 295 295 295 296

GFSNIL_sfc_thetae_009.txt.gz
Theta_e
294 294 293 293 292 292 292 292 293 293 293 293 294 294 293 292 292 292 292 291 291 293
294 293 293 293 292 292 292 294 293 293 293 293 293 293 293 292 291 292 292 292 292 292
294 294 294 292 292 292 292 292 293 293 292 292 293 293 292 291 292 291 292 293 292 293
294 293 292 291 292 292 292 292 292 292 292 293 292 292 291 290 291 291 291 292 292 293
294 292 290 290 290 291 291 292 292 292 292 292 292 291 290 290 291 291 291 292 292 293
293 291 290 290 290 290 290 291 291 292 291 291 292 291 291 291 291 291 292 293 293 293
292 292 291 291 290 290 290 290 290 290 291 291 292 292 292 292 291 292 293 294 295 295
293 292 291 290 290 290 290 290 290 290 291 291 291 293 292 292 293 293 294 295 296 296
292 291 291 290 290 289 289 289 289 289 290 290 293 299 301 300 295 295 294 295 295 296
292 291 290 290 289 289 288 288 288 288 289 289 289 299 301 302 295 293 292 292 293 294
292 291 290 289 288 287 287 288 287 288 288 288 290 300 301 302 294 292 292 293 293 294
291 290 289 288 287 287 287 287 287 288 288 287 288 298 301 299 292 292 292 293 294 294
291 290 289 288 287 287 287 288 289 289 288 291 289 296 300 298 293 290 292 295 295 300
290 289 289 287 287 287 287 287 287 287 287 287 289 290 299 300 293 294 295 295 295 296

GFSNIL_sfc_thetae_012.txt.gz
Theta_e
294 294 294 293 292 292 292 292 293 293 292 292 292 293 292 291 291 291 290 290 290 290
294 294 293 292 293 292 292 294 293 292 292 292 292 292 292 291 291 290 290 290 290 290
294 294 294 293 292 292 292 293 293 292 292 292 292 292 291 290 290 290 290 291 290 290
294 294 293 293 293 292 292 292 292 292 292 292 292 291 290 289 290 289 290 290 290 291
294 293 292 292 292 292 292 292 292 292 291 292 292 291 290 289 290 289 289 290 291 291
293 293 292 292 291 291 290 290 291 291 291 291 291 290 290 290 290 290 290 291 291 292
292 293 292 292 290 290 290 289 290 290 291 291 291 291 291 291 290 290 292 293 293 293
293 293 292 291 290 290 289 290 290 289 290 290 291 292 290 291 291 291 292 293 294 295
293 292 291 291 290 289 289 289 289 288 289 289 292 298 301 299 293 293 293 292 293 294
293 292 291 291 290 289 288 287 288 288 288 288 288 299 301 301 294 293 291 290 291 292
293 292 291 290 289 287 287 287 287 287 288 288 290 299 301 301 293 291 291 291 291 291
293 291 290 289 288 287 287 286 287 288 287 287 288 297 300 298 292 291 291 292 292 292
293 291 290 289 288 286 287 288 288 288 287 291 288 296 298 298 292 289 290 292 293 300
292 291 290 288 288 287 287 287 287 288 287 286 287 287 298 300 293 291 291 292 293 296

GFSNIL_sfc_thetae_015.txt.gz
Theta_e
304 302 303 302 301 300 300 301 301 301 301 301 301 301 301 301 301 301 300 300 300 299
302 302 301 301 301 301 301 300 301 301 300 300 300 300 301 300 300 300 300 300 300 299
301 301 302 301 299 300 300 301 300 300 300 300 300 300 300 300 300 299 299 299 299 299
300 300 300 300 300 300 300 300 300 299 299 299 299 299 299 299 299 298 298 299 298 298
300 300 300 300 300 300 299 300 299 299 299 298 299 299 298 298 297 297 297 298 298 298
299 299 299 299 299 299 299 299 299 299 298 298 298 298 298 297 297 298 297 298 298 299
298 299 300 300 299 298 298 298 298 298 298 298 298 297 297 297 298 297 298 299 299 300
299 299 299 299 298 298 297 297 297 297 297 297 297 296 297 298 298 298 298 300 300 301
298 298 298 298 297 297 296 296 296 296 296 296 296 299 301 300 299 299 299 299 300 300
297 297 297 297 296 296 296 295 295 295 295 295 297 301 302 302 300 300 300 299 298 298
297 296 296 296 296 296 296 295 295 295 295 296 296 300 302 302 300 300 300 299 298 298
297 296 296 295 295 295 295 295 294 295 295 295 296 300 302 301 299 299 298 298 299 299
297 296 295 296 295 295 295 294 294 294 295 296 295 298 301 300 299 297 297 298 299 300
297 296 297 296 295 294 294 294 294 294 294 294 296 296 299 300 299 297 297 297 297 299

GFSNIL_sfc_thetae_018.txt.gz
Theta_e
314 315 314 311 311 310 309 308 308 307 306 306 306 306 306 305 305 305 304 304 304 303
312 313 312 312 311 311 309 308 308 307 306 305 305 305 305 304 304 304 304 304 304 302
310 311 311 312 310 309 309 308 307 306 305 305 305 304 304 304 304 303 304 303 302 302
309 309 310 309 309 309 308 307 306 305 305 304 304 303 303 303 303 302 302 302 302 301
308 308 308 308 308 308 307 307 305 305 304 303 303 303 302 302 301 301 301 301 301 300
306 306 306 307 308 307 306 306 305 304 303 302 303 302 302 302 301 300 301 301 300 299
305 306 306 307 307 306 306 304 304 303 303 303 302 302 302 301 301 300 301 300 300 300
305 306 305 306 306 306 305 304 304 303 302 303 302 301 301 301 301 301 300 300 301 302
303 304 304 305 305 305 304 304 303 302 301 301 300 305 305 303 301 300 300 300 301 302
303 303 303 304 304 305 304 303 302 301 301 301 301 303 304 303 301 301 301 301 301 301
302 302 303 303 304 303 303 303 302 301 301 301 301 303 305 304 302 301 302 301 301 301
302 301 301 302 303 303 303 302 301 301 300 300 300 303 304 303 301 300 301 301 301 301
302 301 302 302 303 304 304 302 302 300 300 302 300 303 303 302 300 299 299 300 301 301
301 301 302 302 303 303 302 301 300 299 300 300 300 301 303 303 300 299 298 299 299 301

GFSNIL_sfc_thetae_021.txt.gz
Theta_e
321 321 319 320 317 314 312 311 312 311 310 310 310 310 310 309 308 308 307 307 306 305
316 318 318 319 320 315 314 312 312 311 310 309 309 309 309 307 306 306 305 305 306 304
313 315 316 317 318 315 314 313 311 310 309 309 308 308 308 307 306 305 305 305 304 303
311 312 312 314 316 316 315 313 311 310 309 308 307 307 305 304 304 304 304 305 304 302
309 310 310 311 313 315 313 312 310 309 308 307 306 306 304 304 303 303 303 303 303 301
308 308 308 309 312 313 312 311 309 308 307 306 305 305 304 304 303 302 302 302 301 301
307 307 308 309 310 311 311 310 308 307 306 306 305 304 304 303 303 302 301 301 302 300
308 307 307 307 309 310 310 309 308 306 306 305 305 304 304 303 303 302 301 301 300 301
307 306 306 307 306 308 309 308 307 306 304 304 303 308 308 305 302 302 301 300 300 301
304 305 304 305 306 307 308 308 306 305 304 303 303 310 309 308 303 302 301 300 301 301
303 303 304 304 304 306 307 306 306 304 304 304 303 309 308 306 303 302 302 302 302 302
302 300 301 302 303 304 306 306 305 304 304 303 303 308 307 305 301 301 302 302 302 302
302 299 299 302 304 305 305 305 304 303 303 304 302 307 308 306 301 299 300 301 301 304
299 298 298 302 304 305 305 304 303 302 302 302 302 304 308 307 300 299 299 298 299 301

GFSNIL_sfc_thetae_024.txt.gz
Theta_e
308 310 314 319 317 311 310 309 308 307 306 306 305 304 303 302 301 300 299 298 297 298
308 308 309 316 317 315 312 310 308 307 305 305 305 304 302 302 300 299 299 299 299 297
309 307 307 309 314 314 313 310 307 306 306 304 304 304 302 300 300 298 298 299 298 297
308 308 307 307 309 312 313 311 307 307 305 304 303 303 302 301 299 298 298 298 298 297
307 309 307 305 305 306 310 312 309 306 305 304 303 303 302 300 300 299 297 298 297 297
306 308 306 305 305 306 308 311 309 306 305 304 303 302 301 300 299 298 297 297 297 296
305 306 306 306 304 305 307 310 308 306 305 304 303 302 301 300 298 297 297 298 297 296
304 306 305 305 304 304 306 307 308 305 304 303 302 302 300 299 298 295 295 296 297 297
304 305 304 304 304 304 304 305 305 304 303 302 303 308 309 302 297 296 295 294 295 295
304 303 303 304 304 303 303 304 304 303 302 301 300 311 311 308 297 296 294 295 295 296
302 301 302 301 302 302 303 302 303 302 301 300 299 312 312 309 296 295 295 295 295 295
301 299 300 299 300 301 302 303 303 301 299 299 298 311 311 304 296 295 295 297 297 296
300 299 298 298 298 301 303 303 303 300 300 303 301 310 310 302 296 294 295 296 296 305
299 298 299 298 296 301 302 302 302 299 300 300 302 305 309 306 297 296 295 295 295 297

GFSNIL_sfc_thetae_027.txt.gz
Theta_e
305 306 307 306 306 307 312 310 310 307 307 307 305 305 304 303 302 300 299 296 296 295
303 304 305 306 307 306 309 312 309 307 307 306 304 305 304 303 301 301 298 297 296 296
302 303 304 307 306 305 306 310 309 308 306 305 304 304 303 302 301 299 298 298 296 295
300 302 304 306 307 306 304 308 310 308 306 304 303 304 302 302 300 299 298 297 298 296
301 302 302 304 305 305 305 306 309 308 307 305 304 303 302 301 301 299 297 297 297 297
299 301 302 303 304 305 305 305 306 308 306 306 304 303 302 301 301 300 299 297 297 296
299 301 302 302 303 305 304 304 306 305 308 306 305 303 302 301 300 299 298 298 297 296
297 300 303 302 303 304 304 304 305 306 306 306 304 303 301 300 298 297 297 297 298 297
297 297 299 304 304 303 303 303 304 304 305 304 304 309 308 302 297 297 296 295 295 296
297 297 301 303 302 302 302 302 302 303 304 304 303 311 311 307 298 296 296 294 294 295
296 298 300 297 298 300 301 301 301 302 303 303 303 312 312 309 297 295 294 294 293 293
297 298 297 296 297 298 299 300 299 301 302 302 301 311 312 305 296 294 293 294 294 294
296 297 296 296 297 298 299 299 300 300 303 304 301 311 312 300 296 293 294 294 296 303
295 296 296 296 297 297 297 297 299 300 302 301 301 308 310 305 296 295 295 294 295 299

GFSNIL_sfc_thetae_030.txt.gz
Theta_e
297 300 302 302 301 302 302 304 306 308 308 308 308 308 307 304 303 302 301 297 296 297
295 300 301 301 302 303 303 305 305 305 308 309 308 308 306 305 302 302 301 300 298 297
297 300 300 301 301 303 303 302 303 303 306 308 308 307 306 305 303 301 300 300 297 295
298 299 299 300 302 303 302 302 303 304 304 307 307 305 306 305 303 300 300 300 298 296
298 299 297 298 301 303 302 302 303 304 305 307 308 306 305 304 303 300 299 298 298 296
296 296 297 298 301 303 302 301 302 302 303 305 306 305 305 305 303 300 300 299 298 297
295 296 297 298 300 301 302 301 301 301 303 304 306 306 306 305 303 301 300 299 299 297
295 296 296 297 300 300 301 303 303 302 303 303 305 306 306 305 303 300 299 297 298 297
295 295 295 296 297 300 303 302 302 301 301 302 305 308 311 308 302 300 298 296 296 297
295 294 295 296 300 299 299 298 298 300 301 301 302 308 310 312 302 299 298 297 296 296
294 294 295 295 296 295 295 296 297 298 300 299 301 306 309 312 303 299 298 296 295 296
294 292 293 293 294 295 295 296 296 298 300 298 298 305 308 310 302 298 295 295 295 295
293 292 292 293 293 295 295 296 297 298 299 300 298 305 308 309 299 295 294 293 294 301
294 292 292 291 293 294 294 295 296 296 298 298 300 303 307 310 299 296 293 293 295 297

GFSNIL_sfc_thetae_033.txt.gz
Theta_e
294 295 298 300 299 298 299 301 302 302 301 303 305 306 306 306 304 305 303 302 299 297
294 294 297 298 298 299 300 303 303 301 301 301 303 305 306 305 304 304 304 303 300 299
294 294 295 296 296 298 300 302 301 301 301 301 302 304 305 305 305 304 303 303 301 298
294 296 295 296 297 297 298 301 301 301 301 301 302 304 304 304 305 305 303 303 301 298
295 296 294 295 296 297 297 301 301 301 301 301 302 302 303 303 304 304 303 302 301 299
292 292 293 294 296 296 298 300 300 301 300 301 302 301 302 303 303 304 304 303 301 300
291 292 293 294 295 296 297 298 299 300 301 301 301 302 302 302 303 304 304 304 303 301
293 293 293 293 295 296 296 297 299 300 300 301 302 302 301 301 302 303 303 305 303 301
293 294 293 293 294 294 295 299 300 299 299 299 300 304 306 306 302 304 304 302 301 300
293 293 293 294 293 294 295 295 296 296 296 296 297 304 306 306 302 303 305 303 301 299
293 293 293 292 292 292 292 293 294 295 295 296 297 303 305 306 302 303 306 302 300 298
293 293 292 291 291 291 291 292 293 295 295 295 296 302 304 304 301 303 303 300 299 298
293 292 292 292 290 291 291 293 294 293 294 298 297 301 303 303 301 302 299 298 298 303
293 292 292 293 291 289 290 291 290 292 294 296 297 297 302 303 302 299 296 295 295 298

GFSNIL_sfc_thetae_036.txt.gz
Theta_e
293 293 293 295 296 296 296 297 299 300 301 300 300 300 301 301 303 302 302 300 301 301
292 292 293 294 295 295 296 299 299 300 301 300 300 300 300 301 302 303 303 303 302 301
293 293 293 294 293 294 296 297 298 299 300 300 300 300 299 300 302 302 303 303 303 302
294 293 293 292 293 294 295 295 297 299 300 300 300 299 299 299 300 301 302 302 301 301
295 294 292 292 293 293 293 294 296 299 299 300 300 300 299 298 300 299 300 302 301 301
294 293 293 292 293 293 293 294 295 297 297 299 299 299 299 299 300 300 300 301 301 301
293 293 292 293 293 293 294 293 295 295 297 298 300 300 300 300 299 299 300 301 302 302
295 294 294 293 293 293 294 294 294 294 297 299 300 300 298 299 299 299 299 301 302 302
295 295 293 292 292 293 293 294 293 296 296 296 299 303 303 301 298 299 300 299 301 303
293 293 293 294 293 292 292 293 294 294 294 294 296 302 303 302 299 299 300 300 299 302
291 291 293 293 292 292 292 292 292 292 293 293 295 301 302 302 300 299 300 300 299 301
290 290 291 291 291 291 291 291 291 292 293 293 293 299 300 300 299 298 299 299 299 302
291 291 290 291 292 293 293 292 293 292 292 294 292 297 300 300 298 297 299 298 300 305
292 291 291 291 291 292 292 291 288 289 290 290 292 293 300 301 298 298 298 298 299 300

GFSNIL_sfc_thetae_042.txt.gz
Theta_e
302 302 303 303 304 303 303 304 306 306 306 305 305 305 307 308 310 310 309 309 310 310
301 301 302 302 303 304 303 304 304 304 304 304 305 305 305 305 308 309 308 308 309 310
300 301 301 301 301 302 303 303 303 303 303 304 304 304 304 305 309 308 308 307 307 308
300 300 301 301 301 302 302 301 301 302 302 303 302 303 303 303 305 305 305 306 306 307
299 299 299 299 300 301 300 301 302 301 301 301 302 302 302 302 303 303 303 304 305 306
297 297 297 298 299 299 299 300 300 300 300 300 301 301 302 302 301 301 302 303 305 305
296 296 296 297 297 297 298 297 299 299 299 300 300 301 301 301 302 303 304 304 305 304
296 296 296 295 296 297 297 297 297 298 298 299 299 299 299 301 302 302 303 303 303 304
296 297 296 295 295 295 295 295 295 295 297 297 298 301 301 302 301 301 301 301 302 303
294 295 295 294 294 294 295 295 295 295 296 297 298 301 302 303 302 301 301 301 302 301
294 293 294 294 294 294 294 294 294 295 295 296 298 300 301 302 301 301 301 301 301 301
293 292 293 293 293 293 294 292 294 295 295 295 296 299 300 301 300 300 300 300 300 300
293 294 292 293 293 293 293 293 293 294 295 297 295 298 300 300 299 297 298 299 299 301
294 293 293 293 293 293 292 293 293 293 294 295 296 296 299 299 298 296 296 296 298 299

GFSNIL_sfc_thetae_045.txt.gz
Theta_e
303 303 303 303 302 303 304 305 307 306 306 306 306 307 307 306 307 308 308 309 309 309
301 301 302 302 303 303 304 304 304 305 305 305 305 305 306 305 305 305 306 308 309 308
300 301 302 302 302 303 303 304 304 305 304 304 304 304 304 304 305 304 304 307 308 307
300 300 300 300 301 301 302 303 303 303 302 302 303 303 303 303 303 303 303 305 307 306
299 299 298 298 299 299 299 301 301 301 302 302 302 302 302 302 302 302 302 303 305 305
298 298 298 298 298 298 298 298 299 299 298 299 300 300 301 301 301 301 302 302 302 303
297 298 299 299 299 298 297 296 297 297 297 298 299 300 300 300 301 301 302 302 302 302
297 298 297 296 296 297 297 296 296 296 297 297 298 298 299 300 300 300 301 302 303 303
296 295 294 295 296 296 296 297 296 296 296 296 296 299 301 301 299 300 300 300 301 303
294 293 294 294 294 294 294 295 295 295 296 295 296 300 301 302 300 300 300 298 298 301
293 293 294 294 293 294 294 294 294 293 295 295 296 299 300 301 299 300 299 300 301 301
294 293 293 292 293 294 293 294 293 295 294 294 295 299 300 299 298 298 298 300 300 301
294 292 293 293 293 294 294 293 293 293 294 295 295 298 299 299 298 296 297 299 300 303
292 293 293 293 294 293 293 293 293 293 294 294 295 295 298 300 297 297 297 297 297 299

GFSNIL_sfc_thetae_048.txt.gz
Theta_e
295 295 295 295 297 297 297 298 298 299 299 299 300 300 300 300 299 299 299 300 301 301
294 295 295 296 297 298 298 300 300 299 299 300 300 300 299 299 298 299 299 300 299 301
294 295 296 296 296 296 297 297 297 297 298 299 299 299 298 298 298 298 299 300 298 299
294 295 296 296 296 296 296 296 296 296 297 297 297 298 298 298 298 297 298 300 299 298
295 295 295 295 296 296 296 296 296 296 295 295 296 296 296 297 298 297 297 299 299 298
294 294 295 295 295 296 295 295 295 296 295 294 294 295 295 296 297 297 297 298 298 299
293 294 294 294 294 294 295 295 295 296 296 295 295 295 295 295 296 296 297 299 299 299
293 293 293 293 294 294 295 295 295 295 295 295 295 296 295 295 295 296 296 298 299 299
292 292 292 293 293 293 293 294 294 294 295 294 296 299 300 298 295 295 296 296 298 298
292 292 292 293 293 293 293 294 293 294 294 294 295 300 301 300 296 295 296 296 297 298
292 292 292 292 292 292 293 293 294 294 294 293 294 299 300 300 296 296 296 297 298 298
292 291 292 291 291 292 292 293 293 294 292 292 293 298 298 298 295 295 295 297 298 298
292 291 291 291 291 292 293 293 294 294 293 294 293 297 298 297 295 293 294 296 296 300
292 292 292 292 292 292 292 293 293 293 293 292 293 292 298 299 295 294 294 294 294 296

GFSNIL_sfc_thetae_054.txt.gz
Theta_e
290 290 290 291 291 291 291 292 293 294 294 294 295 295 294 294 294 294 295 294 295 296
290 290 290 291 291 291 292 294 295 294 293 293 293 293 293 294 293 293 293 294 295 295
290 290 291 290 290 291 291 292 292 293 293 293 294 294 293 293 293 292 293 294 293 294
290 290 290 290 291 291 291 291 292 293 293 293 293 293 292 293 293 292 292 292 293 293
289 290 289 289 289 290 291 292 292 292 292 292 293 293 292 292 293 292 292 292 292 292
289 289 288 289 290 291 291 291 292 292 292 292 292 293 292 292 293 293 293 293 292 292
288 288 289 289 290 291 291 291 291 292 293 293 293 293 293 293 293 292 294 294 293 293
289 289 289 290 290 291 292 292 292 293 293 293 293 294 294 294 293 295 293 295 295 295
289 289 289 290 290 291 292 292 292 292 292 292 293 297 299 298 295 295 295 293 295 296
288 288 289 290 291 290 290 291 291 292 292 292 293 298 300 300 297 296 295 295 294 295
288 288 290 290 290 290 291 291 292 292 292 292 293 299 300 301 297 295 294 294 294 295
288 288 290 289 290 291 291 291 292 292 292 292 293 298 300 299 296 295 293 294 293 294
288 289 290 290 290 291 292 292 293 293 294 296 295 298 299 299 296 293 292 292 293 298
289 290 291 291 291 291 292 292 292 292 293 294 295 295 299 300 297 294 292 291 291 293

GFSNIL_sfc_thetae_057.txt.gz
Theta_e
289 289 289 289 290 289 289 290 292 292 292 292 292 292 292 291 291 291 291 291 291 293
289 289 289 289 289 289 290 293 293 292 291 292 292 293 293 293 292 292 292 292 292 292
289 289 289 289 289 289 290 290 291 292 292 292 292 292 292 292 292 291 292 293 292 291
289 289 289 289 289 289 290 291 291 291 291 291 291 292 291 291 291 291 291 292 291 291
288 288 288 288 288 289 290 291 291 291 291 291 291 292 292 291 292 291 291 291 292 292
288 287 287 288 289 290 290 290 290 291 290 291 291 293 293 292 292 291 291 291 291 292
287 287 288 289 289 289 290 289 290 291 292 292 292 293 293 293 292 292 293 292 293 293
288 288 288 288 289 289 290 290 291 292 292 292 293 293 293 293 293 293 293 294 295 295
288 288 288 288 289 289 290 291 291 291 292 292 293 297 299 298 296 296 295 294 295 296
287 287 288 288 289 290 290 291 291 291 292 292 293 299 301 301 298 296 296 296 296 294
286 287 288 288 288 290 291 290 291 292 292 292 293 300 302 303 299 297 296 297 296 293
287 287 287 287 289 290 291 291 291 292 293 293 293 299 302 301 298 295 295 296 295 293
287 287 287 288 290 291 291 292 293 293 293 295 295 298 301 301 298 295 294 295 294 298
287 287 289 290 291 291 292 292 292 292 293 294 295 297 302 302 298 297 294 293 292 292

GFSNIL_sfc_thetae_060.txt.gz
Theta_e
288 288 289 289 289 288 288 289 290 291 291 291 291 292 291 291 291 291 290 289 290 291
288 288 288 288 288 288 289 291 292 291 291 292 292 291 291 291 291 291 291 290 290 290
288 288 288 288 288 288 289 289 290 290 290 290 291 291 290 290 291 290 290 291 290 290
287 288 288 287 288 288 289 289 289 290 290 290 290 290 290 290 290 290 290 290 290 290
287 288 286 286 287 288 288 290 289 289 289 290 290 290 290 290 292 291 291 291 290 290
287 286 286 287 288 288 289 289 289 289 289 289 290 290 292 292 292 292 292 292 291 291
286 286 287 288 288 288 288 288 288 289 289 290 291 292 292 292 292 292 292 293 293 292
286 286 286 287 288 288 288 289 289 290 292 292 292 293 292 293 294 293 293 293 293 294
286 286 287 287 287 288 288 289 291 291 291 291 293 297 300 299 297 297 297 295 296 296
286 286 286 287 287 287 287 290 291 291 292 292 293 298 301 302 299 298 298 297 296 296
285 285 286 286 286 287 289 290 291 291 292 292 294 300 302 302 299 299 298 298 297 296
285 285 286 286 288 289 290 290 291 292 293 293 293 299 301 300 297 297 297 298 297 296
286 286 286 288 289 290 291 292 293 293 293 295 294 298 300 300 298 296 296 298 296 299
286 286 288 289 290 291 291 292 292 292 293 294 295 297 300 301 298 298 297 296 295 294

GFSNIL_sfc_thetae_063.txt.gz
Theta_e
296 297 297 296 296 295 296 296 297 297 297 297 297 296 296 296 296 296 295 295 295 295
296 295 295 295 296 296 296 296 296 296 296 295 295 295 295 295 295 295 295 295 295 295
295 295 295 295 295 295 295 295 295 294 294 294 294 294 294 294 295 294 294 295 294 294
294 295 295 294 294 294 294 294 293 293 293 293 293 294 294 294 294 293 294 294 293 293
294 294 293 293 293 293 292 293 293 293 293 293 293 293 293 293 293 293 293 293 293 293
293 292 292 292 292 292 292 292 293 292 292 292 293 293 293 293 293 293 293 294 293 293
292 292 291 292 292 291 292 291 292 292 292 293 293 293 294 294 294 294 294 294 294 294
291 291 291 291 291 291 291 292 292 292 293 294 294 294 294 295 295 295 295 296 295 295
290 290 290 290 290 291 291 292 292 292 293 293 294 298 300 299 297 298 297 297 298 299
289 289 289 290 290 290 291 291 292 292 293 293 294 299 302 302 299 298 298 298 298 298
288 288 289 289 289 290 291 291 292 292 293 293 295 300 301 302 299 298 297 297 297 297
288 288 288 289 289 290 290 291 292 293 293 293 294 299 301 300 298 297 297 298 298 298
288 288 288 289 289 290 291 291 292 292 294 295 295 298 300 299 297 296 296 298 298 302
289 288 289 290 291 291 291 291 292 292 293 294 295 297 299 300 297 296 296 298 298 298

GFSNIL_sfc_thetae_066.txt.gz
Theta_e
302 304 303 303 302 301 301 301 301 300 300 300 300 300 299 299 298 299 298 298 299 298
303 302 302 302 301 301 301 300 300 300 299 298 298 298 299 298 298 298 298 298 299 298
302 301 301 301 300 299 299 299 298 298 298 298 298 298 298 298 298 298 298 298 298 297
301 300 300 299 299 298 298 297 297 296 296 297 297 298 297 297 298 297 297 297 296 295
300 299 298 298 297 297 296 297 296 296 296 296 297 297 297 297 297 295 294 295 295 295
298 298 297 296 296 296 295 295 295 295 296 296 297 297 297 297 296 295 294 294 295 295
297 296 296 295 295 295 295 294 295 296 296 297 297 297 297 296 295 295 296 296 296 296
296 295 295 294 294 294 294 295 296 296 296 297 296 296 296 297 297 297 297 298 297 298
294 294 294 293 293 294 294 295 296 295 295 295 296 299 300 300 298 299 299 298 300 301
293 293 293 293 293 293 294 295 293 293 293 293 295 299 301 302 300 300 300 300 301 299
292 292 292 292 293 293 294 293 292 293 294 294 295 299 301 302 300 299 298 299 298 297
292 291 292 292 292 294 293 293 293 294 294 294 295 299 300 300 298 298 298 298 298 298
292 291 291 292 292 292 292 293 292 292 294 296 295 298 300 299 298 296 298 296 298 301
292 291 292 292 291 291 291 292 292 292 294 294 295 296 299 299 296 296 295 294 297 297

GFSNIL_sfc_thetae_069.txt.gz
Theta_e
307 306 305 305 304 303 303 303 304 303 302 301 301 301 301 300 300 300 299 300 299 299
305 304 304 304 304 303 303 302 302 301 300 300 299 299 299 299 298 299 299 299 299 299
304 304 304 303 302 302 301 301 300 299 299 299 298 298 298 299 299 298 299 299 299 299
303 303 303 302 301 301 300 299 298 298 298 297 297 297 297 297 298 298 298 297 297 296
302 302 301 301 300 299 298 298 297 296 296 296 296 297 297 297 297 297 296 296 296 296
301 301 300 299 298 297 297 296 296 296 295 295 296 297 297 297 297 296 296 296 296 296
300 300 298 297 297 296 296 295 295 295 296 297 297 297 296 296 296 296 297 297 297 297
299 298 296 296 296 295 295 295 295 295 296 296 296 296 296 297 297 297 297 298 298 298
296 295 295 295 294 294 294 295 295 295 295 293 295 298 299 299 297 298 298 298 299 299
295 294 294 294 293 294 294 294 294 294 293 293 294 299 300 301 298 298 298 299 299 299
294 293 293 293 293 293 293 294 293 293 293 294 295 299 300 301 298 298 298 298 298 298
293 292 292 292 292 293 293 291 292 293 293 293 294 298 300 299 297 297 297 297 299 297
293 293 292 292 292 293 292 291 292 292 293 295 294 297 299 299 297 296 295 296 296 297
293 293 292 292 293 293 291 291 291 292 293 294 295 296 299 299 296 295 294 294 294 294

GFSNIL_sfc_thetae_072.txt.gz
Theta_e
302 300 299 298 298 297 297 297 298 297 297 296 296 295 294 293 293 293 292 291 292 293
298 298 298 297 297 297 297 299 297 296 295 295 294 294 293 292 292 292 292 293 292 293
297 298 297 297 296 296 296 296 296 295 294 293 293 293 292 291 292 292 293 294 293 293
296 297 296 296 296 296 295 294 293 293 293 292 291 291 291 291 292 292 292 293 295 295
296 296 295 295 294 294 292 293 292 292 291 291 291 291 291 291 292 292 292 294 295 294
295 295 294 293 293 292 291 291 291 291 291 291 292 293 293 293 294 295 294 295 294 295
294 294 293 292 292 291 291 291 290 291 292 292 293 293 293 293 294 294 295 295 296 296
293 292 291 291 291 291 291 291 291 292 292 292 292 293 293 294 294 295 295 296 296 297
292 291 291 291 290 290 289 289 291 291 291 290 293 297 298 298 296 296 296 296 298 297
291 291 290 290 289 288 288 288 289 289 290 290 293 298 300 300 297 297 297 297 297 296
290 289 289 289 288 288 288 288 287 289 291 291 292 298 299 300 297 296 296 296 296 296
289 289 289 288 287 287 288 287 290 290 291 291 292 297 299 298 296 295 295 296 295 295
290 289 289 288 287 288 288 289 290 290 291 294 292 297 298 298 296 294 294 294 294 297
290 289 288 287 288 287 288 290 290 291 292 292 293 294 298 299 295 294 292 292 292 293

GFSNIL_sfc_thetae_075.txt.gz
Theta_e
299 299 298 296 295 294 295 295 296 295 295 294 294 294 293 291 291 290 290 289 289 290
295 296 295 295 294 295 295 297 296 295 294 294 293 292 291 290 290 290 290 290 290 290
294 294 294 294 293 294 294 294 294 293 292 292 291 291 290 289 289 289 290 292 290 290
294 294 294 293 293 293 292 291 291 291 291 290 290 289 288 288 288 288 289 290 290 291
293 293 292 292 291 291 290 290 290 290 290 290 290 290 289 289 290 289 290 290 293 294
292 292 291 290 290 290 289 289 289 289 289 290 291 291 290 291 290 290 292 293 293 293
291 291 290 289 289 289 289 288 288 288 289 290 291 291 291 290 289 290 293 294 295 295
291 290 289 289 289 289 288 289 288 289 290 289 290 292 292 293 293 294 294 295 295 296
290 289 288 288 288 288 287 287 288 287 288 288 291 296 298 297 295 296 295 296 297 298
289 288 288 288 287 287 286 286 286 286 287 287 290 297 298 299 296 296 296 296 296 296
288 288 288 287 287 286 286 285 285 286 287 290 291 297 298 299 296 295 295 295 295 295
288 287 287 286 286 286 284 284 285 287 289 290 290 297 298 297 295 295 295 295 295 294
288 288 287 286 286 284 285 286 288 288 291 293 291 295 298 297 295 291 294 293 294 296
288 287 287 286 284 285 285 286 286 289 290 291 292 293 298 298 295 293 292 291 290 292

GFSNIL_sfc_thetae_078.txt.gz
Theta_e
298 297 296 295 294 294 294 294 295 294 293 293 293 293 292 290 290 289 289 288 288 289
294 294 294 293 293 293 293 296 294 293 292 292 292 291 290 289 288 288 288 288 288 288
292 293 293 292 292 292 292 292 291 290 290 290 290 289 288 287 288 287 288 289 288 288
292 292 292 291 291 290 290 289 290 290 289 289 289 288 287 287 287 287 287 287 288 289
292 292 291 290 290 289 289 289 289 289 289 288 288 288 287 287 288 288 288 289 289 290
291 290 290 289 289 288 288 288 288 288 287 288 288 288 288 288 289 289 289 289 290 290
290 289 288 288 288 288 288 287 287 287 288 288 288 289 289 289 289 289 290 291 292 294
289 288 287 287 288 287 287 287 287 287 287 287 289 290 290 291 291 292 292 294 295 295
288 288 287 287 287 286 286 286 286 286 286 286 289 295 297 295 294 294 294 294 295 297
287 288 287 287 286 286 285 285 284 284 285 286 287 296 298 298 295 295 295 295 295 294
287 287 287 286 286 285 285 284 283 284 286 286 288 296 297 298 295 294 295 294 294 294
287 287 286 286 285 285 283 283 284 286 286 285 288 296 297 297 294 294 293 293 294 294
287 287 286 286 285 283 284 285 286 286 287 290 290 294 296 296 295 292 294 293 293 296
287 286 286 285 283 284 284 284 284 286 288 290 290 292 296 298 294 293 292 293 291 291

GFSNIL_sfc_thetae_081.txt.gz
Theta_e
297 297 295 294 293 292 293 292 293 293 292 292 292 291 290 289 289 288 288 287 286 287
293 293 293 292 292 292 292 295 292 291 290 290 289 289 288 287 287 287 287 287 286 286
291 292 291 291 291 291 290 290 289 289 289 289 288 288 287 286 286 286 286 287 286 286
291 291 291 291 290 290 289 288 289 289 288 288 288 287 286 286 286 286 286 286 286 287
291 290 290 289 289 288 288 288 288 288 288 287 287 287 286 286 287 286 286 287 287 288
290 289 289 288 287 287 287 287 287 287 286 287 287 287 287 287 287 287 288 288 288 289
289 288 287 287 287 287 286 286 286 286 287 287 287 287 288 288 288 288 289 290 290 290
289 287 287 287 287 287 286 286 286 286 286 286 287 289 287 288 290 291 292 293 293 293
288 287 286 286 286 286 286 285 285 285 285 284 287 294 297 295 292 294 293 294 295 296
287 287 287 286 286 285 285 284 284 283 283 284 285 295 297 298 294 294 295 294 293 294
286 286 286 286 285 284 284 283 282 283 284 284 287 295 297 298 295 294 294 293 294 293
286 286 286 285 284 284 283 282 283 285 284 284 285 294 297 295 293 293 293 294 293 294
286 286 285 285 284 283 283 284 285 284 285 288 288 293 295 295 294 293 292 293 293 297
287 286 285 284 282 283 283 283 282 284 286 287 289 291 295 297 294 293 292 293 293 293

GFSNIL_sfc_thetae_084.txt.gz
Theta_e
296 296 295 294 293 292 292 292 292 292 291 291 291 290 289 288 288 287 287 286 285 286
293 293 293 291 291 291 291 294 291 290 289 289 288 288 287 286 286 286 285 285 285 285
291 291 291 290 290 290 289 289 289 288 288 288 288 287 286 285 285 285 285 286 285 284
290 290 290 290 289 289 288 288 288 288 288 287 287 287 285 285 285 285 285 285 285 285
290 290 289 289 288 288 287 287 287 287 287 287 286 286 285 285 286 285 285 286 286 287
289 289 288 287 286 286 286 286 286 286 286 286 286 286 286 286 285 286 286 287 287 288
288 287 287 286 286 286 286 285 285 285 286 286 286 286 286 286 286 286 288 289 289 289
288 287 286 286 286 286 286 286 285 285 286 285 286 287 286 287 287 287 288 290 291 291
288 287 286 286 286 285 285 285 285 285 284 283 286 294 296 295 291 290 292 293 292 294
287 286 286 286 285 285 284 284 283 283 283 283 285 294 296 297 294 293 294 294 294 292
286 286 286 285 285 284 283 283 282 283 284 284 285 294 296 297 294 293 293 293 294 293
286 285 285 285 284 284 283 282 282 284 283 282 284 293 296 295 292 292 293 294 294 293
286 285 285 284 284 283 281 283 284 284 283 287 287 292 295 295 293 292 292 292 293 296
286 285 285 284 282 281 282 282 282 283 285 286 287 289 295 295 292 292 292 292 292 293

GFSNIL_sfc_thetae_087.txt.gz
Theta_e
304 304 304 303 303 301 301 301 300 300 300 299 298 299 298 298 298 297 296 296 296 295
302 302 301 300 300 300 300 299 298 297 297 297 297 296 296 296 295 295 295 294 294 294
298 299 298 299 298 299 298 297 297 296 296 296 295 295 295 294 294 293 294 294 293 293
297 297 297 298 297 297 296 296 295 295 295 294 294 294 294 293 293 293 293 293 293 293
297 297 297 297 296 295 295 294 294 294 293 293 293 294 293 293 293 292 292 292 293 293
296 296 296 295 294 294 293 293 293 293 293 293 293 293 293 292 292 292 292 292 292 293
295 295 295 294 293 293 293 292 293 293 292 292 292 292 292 291 291 292 293 293 294 294
295 294 293 293 293 292 292 292 292 292 292 292 291 291 292 294 294 294 293 294 294 294
294 293 293 292 292 292 292 292 292 292 291 290 290 294 296 296 294 294 294 294 295 297
293 293 293 292 291 292 292 292 291 290 290 290 291 294 296 297 295 294 295 295 294 294
292 292 292 291 291 291 291 291 290 289 290 290 290 294 296 297 295 294 293 294 294 295
292 291 291 290 291 291 290 290 289 289 289 289 289 293 296 295 293 294 294 294 295 295
291 290 290 291 290 290 289 288 289 289 289 290 289 293 295 295 292 292 293 294 294 296
291 290 291 290 290 289 288 288 288 287 289 289 291 291 295 296 293 293 293 292 293 294

GFSNIL_sfc_thetae_090.txt.gz
Theta_e
311 311 311 311 311 311 310 309 308 307 307 306 305 305 305 304 304 303 302 302 301 300
310 310 310 309 309 308 307 306 305 305 304 304 303 302 302 301 301 300 300 299 299 299
307 307 307 306 305 305 305 304 303 303 303 302 301 301 300 300 300 299 299 298 298 298
304 305 304 304 304 304 304 303 302 301 300 300 299 299 299 299 298 297 297 298 297 296
304 303 303 303 303 303 302 301 300 299 298 298 298 299 298 297 297 296 296 296 296 295
302 302 303 302 302 300 300 299 299 298 298 298 298 297 297 297 296 296 296 295 295 295
301 302 302 301 300 299 299 298 298 298 298 297 297 297 296 296 296 296 296 296 296 296
300 301 300 299 299 298 298 298 298 297 297 297 297 296 296 296 297 296 295 296 296 297
300 300 299 299 298 298 298 298 298 297 297 296 296 296 297 297 295 295 295 295 295 296
299 298 299 298 298 297 298 298 297 297 297 295 296 297 297 297 295 295 295 295 295 294
298 298 298 298 298 297 298 297 296 296 295 295 295 296 296 296 295 294 294 294 295 296
298 297 297 297 297 297 296 296 295 295 295 294 292 294 296 295 294 294 294 295 296 296
297 297 296 297 296 296 296 294 294 293 293 293 292 294 295 295 294 293 294 294 295 297
297 297 297 296 296 295 294 293 293 291 292 293 293 293 295 295 294 294 293 294 295 296

GFSNIL_sfc_thetae_093.txt.gz
Theta_e
315 313 312 312 312 312 312 312 311 310 309 308 307 307 306 305 305 305 303 304 303 302
311 312 312 312 312 311 310 309 308 307 306 305 304 304 303 302 302 302 301 300 300 300
311 311 310 309 308 307 307 306 305 304 304 303 303 302 302 301 301 299 300 300 298 298
307 307 307 306 306 305 305 304 303 302 301 301 301 300 299 299 299 298 298 299 298 298
306 305 305 304 304 304 303 302 301 301 300 299 299 299 298 298 298 297 297 297 297 297
304 304 303 303 302 302 301 300 300 299 298 298 299 298 298 298 297 297 296 296 296 296
303 303 302 302 301 300 300 299 299 299 299 299 298 298 298 297 297 296 296 297 298 297
302 301 301 300 300 300 299 299 299 298 298 298 298 298 297 297 296 296 296 296 296 296
300 300 300 300 299 299 299 299 299 298 298 298 297 300 299 298 296 296 294 294 295 297
299 299 299 299 299 299 298 299 298 298 298 297 297 299 299 299 295 294 295 295 295 294
298 298 299 298 298 298 298 298 297 297 297 296 296 299 298 296 294 294 294 294 295 295
298 298 298 297 298 298 297 297 297 296 296 295 295 296 296 295 293 293 294 295 296 295
298 298 297 298 297 297 297 296 296 295 295 295 292 295 296 295 293 292 293 294 295 297
298 298 298 297 297 297 296 295 294 294 293 292 293 293 295 296 293 293 293 293 294 296

GFSNIL_sfc_thetae_096.txt.gz
Theta_e
309 307 307 309 308 308 305 305 304 303 302 302 302 301 299 298 298 297 296 295 295 294
306 308 308 308 308 305 303 305 302 301 300 299 298 298 297 295 295 294 294 293 293 292
308 309 307 305 302 301 300 300 299 299 298 298 297 296 295 294 294 293 293 294 292 291
305 305 303 300 300 299 299 298 298 297 297 296 295 294 293 292 293 292 291 292 292 292
301 300 298 298 298 298 297 297 296 296 295 294 294 293 292 292 292 291 291 291 291 291
298 297 296 296 296 296 295 294 295 295 294 294 294 293 293 292 292 291 291 291 290 291
296 296 295 295 295 295 294 293 292 293 293 294 294 294 294 293 292 291 292 293 293 292
296 295 295 294 294 294 293 293 293 293 293 293 294 295 292 292 291 291 291 293 293 293
296 295 295 294 294 294 293 293 293 293 293 292 295 300 301 299 292 294 292 290 291 291
295 294 294 294 294 293 292 292 292 292 292 291 292 300 300 301 295 290 289 289 290 291
294 294 294 293 292 292 291 291 291 291 291 291 293 299 300 299 290 289 290 292 291 291
294 293 293 292 291 292 291 290 291 291 290 290 289 297 297 295 291 292 292 293 292 291
294 293 292 291 291 291 291 291 292 291 290 294 288 295 296 295 292 291 290 292 292 296
293 292 292 291 291 290 290 290 289 290 289 287 288 288 295 296 293 291 290 290 291 292

GFSNIL_sfc_thetae_099.txt.gz
Theta_e
309 307 306 305 307 305 307 306 304 303 301 301 301 299 298 296 296 294 293 292 292 292
304 305 305 306 305 305 303 304 302 299 297 297 297 296 295 294 293 292 292 291 290 290
306 305 305 303 301 300 301 300 297 297 296 296 295 294 293 292 292 291 290 292 290 289
303 303 301 301 300 300 299 297 296 296 295 295 294 292 291 290 290 290 289 289 289 290
301 298 300 298 297 297 295 295 295 294 294 293 293 291 291 290 290 289 289 289 289 289
297 296 294 293 293 293 293 293 293 293 293 292 292 292 291 291 291 290 289 289 289 289
293 293 292 293 292 293 292 291 291 291 292 293 292 292 292 291 290 289 290 291 291 291
293 293 293 293 292 292 292 292 292 291 292 292 292 293 291 291 290 289 289 291 291 292
294 294 293 293 292 292 291 291 291 291 291 290 294 300 301 300 291 292 294 293 289 289
293 293 292 292 291 291 290 289 289 289 290 289 290 300 301 301 295 292 289 287 288 289
292 292 291 291 290 290 289 289 289 289 289 289 291 299 299 299 290 287 288 290 291 291
291 291 291 290 289 289 289 289 289 289 289 288 288 298 297 294 289 290 291 292 292 291
292 291 290 289 289 289 289 289 290 289 289 292 286 293 296 294 289 288 291 292 290 295
291 291 290 289 288 288 288 288 287 287 285 285 288 287 295 296 292 291 290 290 291 293

GFSNIL_sfc_thetae_102.txt.gz
Theta_e
317 315 313 311 308 304 304 304 303 304 302 301 300 299 297 296 295 293 292 291 291 291
313 309 308 308 308 305 305 303 301 301 299 297 297 295 294 293 292 291 290 290 289 289
306 306 305 304 301 301 299 300 298 297 297 295 294 293 292 291 291 290 289 290 288 287
303 302 301 300 300 298 299 297 297 296 294 294 292 291 290 289 289 289 288 288 288 288
300 298 299 298 296 298 295 294 294 293 293 292 291 290 290 290 289 289 288 288 288 288
296 296 293 294 294 293 292 292 292 292 291 291 291 290 290 290 290 289 288 288 288 288
293 293 291 291 291 291 290 290 289 290 291 292 291 291 291 290 289 288 289 290 290 290
291 291 291 291 291 291 291 290 291 290 290 290 291 292 290 290 289 289 288 290 290 291
292 292 291 291 291 290 290 289 290 289 289 289 293 299 301 300 291 291 290 290 292 290
292 291 291 290 290 289 288 288 288 288 289 288 289 299 300 301 293 291 288 288 287 288
291 290 290 290 289 288 288 288 288 288 288 287 289 298 299 299 288 287 287 287 287 288
290 290 290 289 288 288 288 288 288 288 287 286 286 296 297 294 288 288 287 289 290 291
290 290 289 288 288 288 287 288 288 287 285 289 285 292 295 294 289 286 288 289 290 294
290 289 288 287 287 286 286 286 283 284 284 284 286 286 293 295 290 289 289 288 289 291

GFSNIL_sfc_thetae_105.txt.gz
Theta_e
317 313 313 313 311 310 308 304 303 304 302 301 300 299 297 296 294 293 292 291 290 290
315 315 315 312 308 308 305 304 304 302 299 299 297 296 294 293 292 291 289 289 288 288
313 313 308 305 305 303 300 300 299 297 295 296 295 294 292 291 290 290 288 289 288 287
302 302 301 301 300 298 297 296 297 296 295 293 291 290 289 289 289 288 288 287 287 288
299 299 296 296 297 296 294 295 295 293 292 291 290 289 289 289 289 288 288 288 287 288
295 294 295 293 293 293 292 291 291 291 291 290 290 290 289 289 289 288 288 288 287 287
291 290 290 290 290 290 289 289 289 289 290 290 290 290 290 289 288 288 288 288 288 288
290 290 290 290 290 290 290 289 289 289 289 289 290 291 289 289 288 288 288 288 289 289
291 291 290 290 289 289 289 289 289 288 288 288 292 299 300 299 291 290 289 289 289 289
291 290 289 289 289 289 288 287 287 288 288 288 288 298 300 300 292 290 288 286 286 287
289 289 289 289 288 287 287 287 287 287 287 286 288 297 299 299 287 286 287 287 287 286
289 289 289 288 287 287 287 286 286 287 286 285 285 295 296 295 288 287 286 287 288 288
289 289 288 287 287 286 286 287 287 286 283 288 284 291 294 293 288 286 286 287 288 294
288 287 287 286 285 285 285 284 282 283 283 283 285 285 293 294 289 288 289 289 289 289

GFSNIL_sfc_thetae_108.txt.gz
Theta_e
320 321 319 315 313 311 311 311 306 304 303 302 302 299 298 296 295 294 294 292 291 291
319 315 314 314 314 313 310 307 306 304 301 299 299 298 295 294 292 292 290 289 289 288
316 316 316 313 309 306 305 304 301 299 297 296 295 294 294 292 290 290 288 288 287 287
308 305 304 302 301 299 298 297 296 296 294 293 293 292 290 289 289 288 287 287 287 287
299 298 296 296 295 296 296 295 294 293 292 291 290 289 289 289 289 288 287 287 287 287
295 295 292 291 291 292 291 291 291 291 290 290 290 289 289 289 288 288 287 287 286 287
290 290 289 289 289 289 289 289 289 289 289 290 289 289 289 288 287 287 287 288 287 287
290 290 290 290 289 289 289 289 289 289 289 289 289 291 288 288 287 287 287 288 288 288
290 290 289 289 289 289 288 288 288 288 288 288 291 299 300 297 290 290 289 288 289 289
289 289 288 289 288 288 287 287 287 287 287 287 287 298 300 300 292 289 288 287 286 286
289 288 288 288 287 287 286 286 286 286 286 286 288 297 298 298 288 286 286 286 286 285
288 288 288 287 286 286 286 285 285 286 285 284 284 294 295 294 287 287 286 287 287 286
288 287 287 286 285 285 284 286 286 284 282 287 283 290 294 293 287 285 286 286 287 294
287 286 285 284 284 283 283 282 281 281 282 282 284 285 293 294 289 288 288 289 289 288

GFSNIL_sfc_thetae_111.txt.gz
Theta_e
321 320 320 316 315 312 311 311 310 306 305 304 305 306 306 305 303 304 304 304 302 302
322 321 318 318 316 315 313 313 311 307 304 303 303 302 303 302 301 301 300 299 299 299
321 318 317 315 313 313 312 309 307 304 302 300 300 301 300 299 299 298 297 297 297 297
311 309 308 306 305 304 303 303 301 300 299 299 299 299 299 298 297 297 297 296 296 296
300 298 298 297 298 300 298 298 298 298 298 297 297 297 297 296 296 296 295 296 296 296
296 296 295 295 296 297 297 297 297 297 296 295 295 295 296 296 295 296 296 296 295 296
294 294 294 294 294 294 295 295 295 295 295 295 295 295 295 295 295 295 295 295 295 295
294 295 295 295 295 295 295 295 295 295 295 295 295 296 296 296 295 295 296 296 296 296
295 295 294 294 294 295 294 294 295 295 295 295 295 299 300 300 298 298 297 297 297 297
294 294 294 294 294 294 294 294 294 294 294 294 294 298 299 300 297 295 294 294 293 293
294 293 293 294 293 293 294 294 294 294 293 293 293 296 298 298 295 294 293 293 293 293
294 293 293 293 293 293 293 293 292 292 292 291 291 293 295 295 293 292 292 293 293 293
293 293 292 292 292 292 291 291 290 289 289 289 289 291 294 293 292 291 291 292 292 294
291 291 291 290 290 289 289 288 287 288 289 289 290 291 293 294 291 291 290 290 291 292

GFSNIL_sfc_thetae_114.txt.gz
Theta_e
320 315 315 313 312 313 313 314 314 312 312 309 308 309 310 311 311 311 311 311 310 310
322 322 320 319 317 317 315 313 313 313 312 307 307 306 306 308 308 309 309 309 308 308
322 322 321 318 316 314 314 313 309 308 305 304 304 304 303 304 305 305 304 304 303 303
310 308 308 308 308 309 310 308 307 304 302 301 301 302 303 304 303 303 302 301 301 301
301 300 300 300 301 302 302 304 304 303 303 302 302 303 303 301 300 300 300 300 299 299
299 299 299 300 300 301 302 302 301 302 301 301 300 300 301 301 300 300 299 298 298 298
299 299 299 299 299 300 300 300 300 300 300 299 299 299 299 300 299 299 299 299 299 299
299 300 300 299 299 300 300 300 300 300 300 300 299 300 301 301 300 300 299 300 300 300
300 300 300 300 299 299 299 299 299 299 298 298 298 299 300 300 300 300 300 299 300 300
300 299 299 299 299 298 298 299 298 298 298 297 298 299 300 299 300 299 298 298 297 297
299 298 299 298 298 298 298 298 297 297 297 297 297 296 297 298 298 297 297 296 296 295
298 297 298 298 298 298 298 297 297 296 296 295 295 294 295 295 295 294 294 294 295 294
297 297 297 297 297 297 297 295 295 293 293 292 293 293 294 294 293 292 293 294 293 294
297 296 296 297 296 295 294 293 292 292 292 292 292 293 293 294 292 291 290 290 291 292

GFSNIL_sfc_thetae_117.txt.gz
Theta_e
315 313 312 313 313 313 313 314 313 312 311 311 310 308 308 310 313 313 313 313 314 313
319 318 316 315 314 317 315 315 314 313 312 310 308 307 308 310 310 310 310 311 312 311
322 320 319 318 317 316 314 313 311 307 306 306 306 306 308 307 307 306 305 305 306 306
308 308 308 307 309 311 311 310 308 307 306 305 304 303 302 302 301 302 302 302 304 303
302 301 301 301 302 304 306 307 306 305 304 303 303 302 302 303 303 303 302 302 301 300
301 301 301 301 301 302 303 304 305 305 303 303 303 303 302 302 301 301 300 300 298 298
300 300 301 301 302 301 302 301 301 301 301 300 300 300 300 300 299 299 299 299 299 299
300 301 301 301 300 301 301 300 300 300 300 300 300 301 301 301 301 300 299 300 300 300
300 300 300 300 299 299 299 299 299 298 298 298 298 300 300 300 299 299 299 298 299 299
300 299 299 299 299 298 298 299 298 298 298 297 299 299 299 299 298 297 298 297 297 296
299 298 298 298 298 298 298 298 298 297 297 297 297 297 297 297 296 295 296 296 295 295
298 297 298 298 298 298 297 297 296 296 295 294 294 295 295 295 293 293 293 294 295 295
298 297 297 298 297 297 296 295 295 294 294 294 293 295 295 294 293 292 292 293 293 294
298 297 297 297 296 295 294 293 293 292 293 293 294 293 294 294 292 291 290 290 291 292

GFSNIL_sfc_thetae_120.txt.gz
Theta_e
316 313 313 312 311 312 312 312 312 311 311 311 311 310 309 307 308 309 308 307 306 306
315 314 312 313 314 314 314 314 313 311 310 310 309 307 306 306 306 307 306 304 305 304
318 317 317 316 315 314 314 313 312 310 308 306 306 306 306 306 305 303 302 301 301 301
307 308 309 309 310 310 310 308 306 306 306 305 305 304 303 301 301 300 300 299 299 299
302 302 302 303 305 308 307 308 307 307 306 306 306 305 304 302 301 300 300 299 298 297
300 299 299 299 301 303 306 305 305 304 302 302 303 301 300 299 297 295 294 294 294 295
297 298 298 298 299 297 297 297 296 296 297 297 297 298 297 296 295 294 294 294 294 293
296 296 297 296 296 296 295 295 295 295 295 295 297 299 296 296 294 294 294 295 296 296
296 296 295 295 295 295 294 293 293 293 293 293 298 301 301 298 294 294 293 293 293 294
295 295 294 294 294 293 292 292 291 292 292 292 294 300 299 299 293 292 291 291 291 292
294 293 293 293 292 292 292 291 291 291 291 290 294 297 297 297 290 289 289 289 289 289
293 293 293 292 291 291 291 290 289 289 289 287 288 295 295 293 289 289 288 290 289 289
293 293 292 291 291 290 289 289 289 288 287 292 287 295 295 293 289 286 287 287 288 294
293 292 291 290 289 287 287 287 286 287 287 287 289 288 294 294 288 287 287 287 287 288

GFSNIL_sfc_thetae_123.txt.gz
Theta_e
315 314 314 313 313 311 309 309 310 310 310 310 310 310 310 309 308 308 307 307 306 304
314 314 312 312 313 312 313 310 310 310 310 310 310 310 309 307 307 307 306 305 305 305
315 315 313 314 313 313 314 313 311 310 310 309 309 308 306 305 305 304 303 302 301 300
309 310 310 311 311 310 310 310 308 307 306 305 305 305 304 303 302 301 300 299 299 298
304 305 306 306 308 309 307 307 307 307 306 306 306 306 305 303 301 300 299 298 297 296
299 297 298 299 305 307 307 307 308 307 307 305 303 303 301 300 298 296 295 295 294 293
294 294 296 297 296 296 296 295 294 295 296 297 296 296 296 295 293 293 293 294 293 292
294 294 295 294 294 294 294 293 294 294 295 296 297 298 294 294 292 291 292 293 293 294
293 293 293 293 292 292 291 291 292 291 293 294 298 302 301 295 291 291 290 290 290 291
293 292 292 292 291 290 289 289 289 290 292 292 293 300 299 298 289 288 287 287 287 290
291 291 291 290 289 289 289 288 288 288 290 290 294 297 297 296 288 287 287 287 288 287
291 291 291 289 288 288 287 287 286 287 287 288 288 296 296 292 288 287 286 288 287 288
292 291 290 289 288 287 286 287 287 286 286 292 286 295 295 291 287 284 286 286 287 293
291 290 289 287 286 285 285 285 284 285 284 285 287 287 294 294 287 288 289 286 286 287